Location: Haut Kerinec
(48.0623°N, 4.4081°W)
Time: 19:10:20
(UTC+00:00)

Cosmos 2297 Rocket - Pass Details

Date: 01 June 2020
Orbit: 841 x 842 km, 71.0° (Epoch: 04 July)

Event Time Altitude Azimuth Distance (km) Brightness Sun altitude
Rises 22:53:23 0° 337° (NNW) 3,408 7.1 -17.3°
Reaches altitude 10° 22:56:38 10° 356° (N) 2,470 5.8 -17.5°
Maximum altitude 23:00:31 19° 39° (NE) 1,931 4.4 -17.7°
Drops below altitude 10° 23:04:24 10° 83° (E) 2,462 4.5 -17.9°
Enters shadow 23:07:10 - 99° (E) 3,253 5.0 -18.1°
